RH
85 78 85 85 99 100 100 97 99 100 97 98 94 79 63 56 48 40 32 32 30 26 30 34 33 36 59 66 66 44 45 53 47 51 51 59 64 54 49 55 50 47 47 46 43
31 37 63 78 88 100 100 100 100 100 100 100 99 96 90 82 67 56 44 40 31 24 24 26 25 27 30 38 57 45 52 50 54 50 48 48 53 67 62 48 48 47 46 44 44
26 32 50 97 100 100 100 98 95 93 87 81 72 64 58 52 50 42 38 38 35 26 20 20 20 23 25 28 26 40 46 54 52 47 51 44 44 50 67 62 50 48 44 40 41
26 36 48 76 89 80 79 76 76 66 50 42 37 38 27 22 19 16 19 20 20 19 17 18 18 20 21 22 26 24 32 48 43 47 44 47 43 43 47 63 66 56 51 51 43
34 67 81 91 90 96 93 89 69 51 44 32 33 21 16 15 14 10 11 13 13 13 12 12 13 15 15 18 22 26 26 29 46 37 50 49 42 41 42 46 60 69 70 64 58
58 76 92 82 75 72 55 44 41 30 26 27 23 20 16 16 12 11 9 10 10 10 10 11 13 14 13 13 15 19 22 21 24 43 37 54 37 43 41 45 47 57 65 67 67
66 67 60 49 54 50 43 40 35 26 22 23 19 16 13 12 11 10 10 10 9 9 10 10 10 10 12 12 14 16 17 16 16 23 41 37 42 35 38 39 45 46 55 56 59
45 52 52 51 49 48 42 37 32 25 22 22 18 14 11 11 10 10 10 10 8 9 9 10 10 11 11 11 13 14 14 14 15 15 19 29 32 34 33 33 40 41 43 50 55
58 57 59 54 59 51 43 36 29 25 22 22 15 12 11 10 10 10 10 10 10 9 8 9 10 10 11 12 15 15 14 16 17 17 16 18 20 29 32 28 32 40 41 45 53
66 60 63 66 61 51 41 34 24 27 21 18 14 12 11 10 9 9 9 9 9 9 9 8 9 10 12 12 14 18 19 17 17 16 15 18 18 20 26 27 26 33 45 44 47
69 67 75 79 57 48 39 29 21 26 21 17 12 12 10 9 8 8 8 8 8 9 9 9 8 10 12 13 14 14 16 16 16 16 16 19 21 21 23 25 25 28 40 48 44
70 78 70 70 54 48 36 21 18 19 17 12 10 11 9 9 8 8 8 9 9 8 8 9 9 10 11 11 14 14 15 16 14 13 14 16 19 21 23 28 28 26 32 46 53
65 89 62 53 57 48 35 27 21 20 17 12 10 10 9 9 8 8 9 10 10 10 10 9 9 9 10 11 14 16 17 17 16 14 13 14 19 24 25 30 31 26 27 37 47
53 79 65 53 52 50 46 25 25 21 17 14 11 11 9 9 8 7 9 9 10 10 11 11 10 9 10 10 12 15 17 16 17 16 16 16 16 23 24 27 31 28 27 26 38
66 69 60 60 46 47 33 25 27 21 16 13 12 11 10 8 8 8 8 9 9 9 12 12 11 12 11 11 13 14 15 17 18 18 18 18 16 20 22 26 28 28 27 28 30
73 74 69 61 55 46 35 31 25 25 19 14 12 12 9 8 9 8 8 9 9 10 12 13 14 14 13 12 12 14 15 17 18 17 16 17 16 20 20 24 25 27 26 26 27
65 71 86 73 64 49 35 38 28 25 17 15 13 11 10 9 10 8 9 10 9 10 12 14 14 14 14 13 12 13 14 15 18 17 18 18 17 24 21 24 24 25 24 24 23
69 69 77 76 68 45 31 35 30 26 16 14 15 12 9 10 10 9 8 11 11 11 12 12 14 14 15 14 13 13 13 15 17 20 20 19 19 24 27 24 22 20 21 22 22
88 71 79 81 71 45 42 38 29 23 16 16 15 11 9 10 11 9 10 9 11 12 13 15 16 15 16 16 14 13 13 14 16 18 21 20 20 19 19 18 17 16 16 18 20
93 84 78 93 71 44 39 40 32 18 16 16 13 11 9 11 11 10 9 11 10 11 14 15 16 15 15 16 16 15 14 14 16 18 20 22 21 20 19 18 16 16 16 17 17
92 83 80 93 60 49 34 39 33 17 17 16 12 10 9 10 10 9 10 11 11 12 12 14 15 15 14 16 17 17 16 16 16 17 19 22 22 21 20 19 17 16 16 16 17
97 75 77 85 77 36 30 40 31 17 16 14 10 9 10 10 10 10 11 11 13 13 11 13 15 16 16 15 18 18 18 19 18 19 19 21 22 21 20 19 18 16 16 16 17
98 83 69 81 74 47 34 32 28 17 14 12 10 10 10 10 10 11 11 12 14 13 12 14 17 19 20 20 19 18 19 19 20 19 19 19 19 21 21 20 18 17 16 15 15
97 74 68 72 61 42 32 34 22 18 12 10 10 10 10 10 10 10 11 13 14 13 14 16 17 20 23 20 18 18 18 19 19 18 18 17 17 19 20 20 19 18 16 15 14
92 64 63 64 53 42 32 28 19 17 11 11 11 11 11 10 9 10 11 14 15 15 15 14 14 16 18 20 19 20 21 21 20 19 19 18 18 18 19 20 19 18 17 17 16
98 67 61 67 43 35 33 27 18 14 11 12 11 11 11 10 9 10 11 13 14 14 15 14 16 18 20 22 22 21 21 21 20 19 18 18 19 20 19 18 18 18 17 16 15
100 76 65 58 40 32 33 21 17 13 12 11 11 11 11 10 10 10 10 12 14 15 16 14 12 14 16 21 24 25 23 21 21 20 20 19 20 19 19 18 17 16 17 17 17
Wind_Speed
69 73 73 73 71 71 73 74 73 74 75 77 80 81 82 82 82 85 83 89 90 92 92 91 88 87 88 86 83 82 76 66 71 72 74 79 80 79 78 75 73 70 69 67 63
68 68 67 69 70 72 73 75 76 76 78 82 87 88 90 89 88 92 92 93 92 93 90 92 97 96 95 93 90 91 82 76 75 77 80 79 80 82 80 80 78 76 74 71 67
64 67 70 72 73 76 80 83 86 89 92 94 98 100 103 102 100 101 102 100 100 99 95 96 98 100 101 99 98 95 89 89 88 84 80 82 81 82 83 82 81 81 79 77 72
65 67 69 72 75 77 79 84 88 92 93 96 94 99 97 96 91 95 90 94 96 98 97 97 99 103 103 102 103 100 99 98 98 94 86 85 83 81 81 84 85 84 82 79 77
63 62 66 68 73 77 81 86 92 95 94 89 89 93 90 88 89 80 74 79 83 88 91 92 96 103 103 104 105 103 102 105 104 102 97 88 86 84 82 81 84 87 85 83 80
59 62 65 70 75 80 81 82 86 87 85 85 89 89 87 87 83 81 74 71 73 77 82 85 91 96 96 99 103 102 105 107 109 107 103 96 92 84 84 83 84 87 89 87 85
59 61 66 69 66 70 74 78 83 86 74 75 80 83 80 82 75 72 71 72 70 73 75 79 85 89 92 95 97 98 100 102 103 109 106 106 98 93 90 91 88 86 88 89 87
59 59 65 64 65 66 69 75 79 82 75 72 75 79 77 72 69 67 68 67 68 66 71 74 79 85 86 86 89 94 98 99 99 101 110 110 104 103 98 93 92 90 89 89 88
60 59 61 63 66 68 71 77 80 83 74 74 73 77 73 68 65 64 63 60 62 65 67 70 73 78 83 84 84 86 88 93 97 100 102 109 106 110 106 101 95 93 90 89 89
69 65 65 69 71 72 75 79 81 83 76 76 71 73 70 66 60 62 59 59 57 58 60 60 62 67 71 77 77 78 83 89 94 99 100 103 105 108 111 108 102 96 93 91 89
79 70 72 73 76 75 78 79 79 81 74 73 70 68 67 61 52 55 52 54 54 54 58 58 55 56 64 73 79 85 88 91 95 96 97 100 104 106 109 110 108 100 100 94 92
89 83 77 77 79 82 83 87 85 77 73 68 68 67 59 53 47 48 44 45 45 49 53 53 53 60 67 71 76 81 84 89 90 91 92 97 101 106 109 111 110 107 102 101 96
93 94 85 82 83 87 91 94 92 83 79 72 66 64 55 50 43 41 40 40 39 41 46 53 57 61 65 65 68 74 78 82 84 86 89 92 96 105 106 110 110 110 106 104 104
95 98 93 89 89 92 96 98 95 89 81 76 68 64 53 48 38 35 34 37 37 37 38 42 48 54 60 61 64 68 77 80 81 83 87 94 98 104 106 110 111 109 109 107 106
104 108 100 96 95 98 100 97 96 91 85 75 69 62 55 45 35 29 28 34 34 35 34 36 42 47 53 61 64 64 70 76 78 81 84 85 92 103 102 106 110 110 109 109 108
104 108 105 101 100 101 103 103 98 98 89 80 67 62 52 41 34 25 24 30 28 32 34 34 38 43 50 57 60 64 66 72 77 81 82 84 84 95 100 105 108 110 109 111 110
103 108 104 106 101 106 106 106 105 101 86 78 68 57 46 39 31 23 20 25 26 29 34 35 36 41 48 52 58 62 66 68 73 76 77 81 82 84 94 101 105 108 110 111 114
107 113 109 108 111 109 106 110 107 101 86 76 66 53 43 35 28 19 14 17 21 25 31 33 34 35 42 47 53 58 63 65 67 71 73 74 73 80 88 95 98 101 108 111 115
110 113 111 112 111 110 111 111 107 98 83 75 60 47 36 30 23 19 14 16 15 21 26 31 34 35 37 42 47 52 56 59 63 65 67 71 75 80 82 86 89 92 97 107 108
110 114 112 111 114 111 112 112 111 94 82 69 56 42 31 26 20 21 16 18 16 18 24 30 34 35 34 38 42 46 51 54 56 59 63 69 73 74 78 80 83 84 86 89 100
114 116 115 112 119 115 113 113 111 92 77 64 52 38 28 20 21 18 19 15 17 19 20 25 32 36 35 35 38 40 44 49 53 55 57 63 67 69 72 74 75 76 76 78 84
116 120 117 114 121 112 111 112 108 90 73 59 46 33 24 20 19 16 16 14 17 21 21 23 25 33 37 35 35 37 39 43 46 53 57 61 64 67 69 69 69 70 70 72 75
118 121 118 113 121 117 112 112 104 86 68 54 41 29 22 20 16 13 13 12 17 20 19 20 23 28 33 35 35 36 38 39 43 47 51 54 57 59 61 62 63 65 67 67 71
118 121 115 113 121 115 114 113 96 81 64 50 36 26 21 19 14 12 12 12 17 20 21 23 25 29 34 36 33 33 34 36 41 45 48 51 51 52 55 57 58 59 61 61 62
119 122 117 114 118 114 110 107 91 75 59 45 32 24 19 17 13 12 11 11 15 19 22 25 24 28 34 36 35 32 33 36 37 39 44 44 45 45 47 50 52 54 54 55 55
118 121 122 117 114 113 110 103 86 69 55 41 29 22 17 16 12 12 11 12 15 18 21 22 22 24 28 31 31 31 32 32 34 35 35 38 38 40 42 43 43 44 44 46 48
117 120 121 117 115 110 109 94 80 63 51 38 27 19 15 15 12 11 12 12 14 16 18 22 24 25 28 34 35 34 32 29 29 29 30 30 31 34 36 37 37 39 39 40 40
Wind_Direction
289 289 289 289 289 288 288 286 284 284 283 280 278 276 272 271 270 269 264 259 256 254 253 252 249 248 246 244 243 242 234 231 231 236 237 236 235 235 235 236 237 239 240 241 242
291 291 290 290 289 288 287 284 282 279 277 274 274 273 271 269 268 267 265 263 260 257 250 250 251 249 247 246 244 240 240 236 232 232 235 236 234 235 235 235 237 238 240 241 241
294 292 290 289 286 285 285 284 283 281 280 279 278 276 276 275 272 269 267 266 264 262 257 252 248 246 246 246 245 241 236 237 234 231 232 234 235 234 235 235 235 237 238 240 241
294 291 290 288 288 289 288 287 286 284 283 282 282 281 280 279 275 271 270 267 263 261 257 253 252 248 243 243 243 240 236 234 232 233 231 233 232 233 233 235 236 236 237 238 239
300 295 294 294 293 291 291 289 288 286 288 291 288 287 285 284 280 278 270 265 262 259 256 253 250 248 247 244 242 241 238 233 234 231 232 234 232 232 232 233 235 236 236 237 237
302 299 297 293 293 293 295 295 293 294 297 294 288 286 285 282 284 282 275 267 263 257 254 251 249 247 246 244 243 240 239 237 232 232 231 232 231 230 233 232 234 235 236 236 237
304 301 300 301 300 298 298 296 296 298 301 299 292 288 287 285 283 277 274 269 263 257 254 249 245 245 244 243 240 239 238 237 237 229 229 230 230 230 231 232 231 233 235 236 237
315 309 308 308 306 307 304 302 302 306 308 308 299 294 291 288 284 279 273 268 264 256 250 247 244 242 243 241 239 238 236 235 236 232 228 229 229 230 231 231 231 232 232 235 236
329 319 314 314 314 311 309 308 309 312 315 313 304 298 296 291 285 280 274 269 265 259 251 246 242 240 239 239 235 237 235 234 234 231 227 227 227 228 229 228 229 231 232 233 235
337 328 323 321 316 316 315 314 314 319 321 314 309 304 297 292 289 281 273 267 261 255 252 247 240 238 234 233 232 230 230 231 231 231 228 226 225 227 227 226 227 229 229 231 232
342 335 328 323 322 322 319 317 321 327 322 315 312 309 301 297 290 279 273 267 261 254 251 245 238 233 228 225 225 226 227 227 228 227 226 225 225 225 225 226 224 225 228 229 230
344 341 332 327 326 325 323 324 332 330 324 318 314 314 308 302 293 282 275 267 260 253 248 246 237 228 226 223 222 224 224 226 229 229 228 227 225 225 224 224 224 223 223 227 228
344 341 336 334 330 328 328 330 333 334 331 326 324 319 313 306 295 283 274 267 257 245 241 237 232 227 226 223 221 221 221 223 225 227 226 226 225 224 224 224 223 224 223 225 228
342 341 340 338 334 330 329 332 335 336 335 332 329 324 318 313 303 285 274 264 253 245 238 234 232 229 227 225 222 221 220 221 222 224 226 227 225 225 224 224 223 224 224 224 227
342 340 342 338 335 332 334 338 337 338 336 334 330 327 323 317 308 289 271 258 250 241 236 234 230 226 225 224 222 221 222 220 221 223 224 226 224 223 225 225 225 224 224 225 226
342 341 341 340 336 334 335 338 339 339 337 334 331 329 324 317 308 291 266 254 245 237 231 224 222 223 223 221 220 221 221 221 221 221 222 224 225 225 225 225 226 226 226 227 227
341 342 341 338 335 334 336 338 339 339 336 333 331 328 323 316 309 295 270 253 244 232 228 222 221 220 220 219 218 219 221 220 221 221 222 224 226 228 226 226 226 227 228 230 231
341 341 340 338 335 334 338 339 341 340 335 333 330 327 321 315 308 293 270 253 239 228 228 224 224 220 220 218 217 217 219 220 220 221 221 224 225 227 227 228 230 230 230 231 233
340 341 339 338 336 336 338 339 341 339 335 332 330 326 320 310 302 287 269 255 232 224 223 221 220 220 217 217 218 218 218 219 219 220 221 222 223 225 228 230 232 233 234 233 233
338 340 339 335 334 335 339 340 341 338 335 333 330 326 318 305 292 279 265 251 243 225 221 221 221 222 221 218 217 217 220 219 218 218 219 220 223 226 228 230 233 234 236 236 235
338 338 339 335 334 335 338 340 340 337 335 333 330 326 316 302 287 280 268 246 238 238 225 222 221 225 222 220 221 220 219 219 217 217 221 222 222 225 227 230 233 236 237 239 238
336 337 337 335 334 337 340 341 340 337 335 333 330 324 314 302 292 278 265 253 228 227 225 221 220 223 221 219 219 218 217 219 218 218 218 219 221 224 227 228 232 234 237 239 240
334 335 336 335 332 335 340 341 339 337 335 332 331 322 313 303 293 271 259 246 228 227 223 215 214 217 218 217 219 219 218 217 219 219 220 220 223 225 228 229 231 234 236 237 239
334 335 335 334 332 336 341 340 339 337 335 332 331 322 314 302 288 269 254 236 227 220 212 210 207 208 212 216 218 216 215 216 216 217 219 221 223 226 228 230 232 235 239 240 241
332 335 332 333 332 335 341 341 339 337 336 333 330 324 312 296 280 266 249 230 220 214 207 211 211 211 209 209 212 213 214 216 217 218 220 221 223 226 228 230 232 235 239 242 244
332 332 332 331 333 336 340 340 339 338 337 335 333 328 308 287 270 258 241 227 217 213 208 204 201 204 206 208 211 212 211 213 215 217 220 221 221 224 227 230 233 236 240 241 242
331 331 329 328 332 337 340 339 339 339 337 337 334 324 301 282 263 248 237 225 209 204 202 206 208 209 205 201 202 205 207 209 212 213 216 218 218 221 224 227 231 233 236 240 243